{"data":{"norad_id":48277,"epoch":"2026-05-25T01:26:25.682208Z","epoch_age_seconds":63048,"freshness":"FRESH","line1":"1 48277U 21036B   26145.06001947  .00036068  00000+0  12446-2 0  9996","line2":"2 48277  53.1262  17.7217 0005122 111.3002 248.8545 15.29647716280972","mean_motion":15.29647716,"eccentricity":0.0005122,"inclination_deg":53.1262,"raan_deg":17.7217,"arg_perigee_deg":111.3002,"mean_anomaly_deg":248.8545,"bstar":0.0012446,"rev_number":28097,"period_min":94.139322730176,"perigee_km":473.35345421446,"apogee_km":480.37571783918,"semimajor_km":6855.0015860268,"source":"CELESTRAK","updated_at":"2026-05-25T13:38:16.652801Z"}}